SCP
2 2 2 2 2 2 2 2 1 1 1 1 1 1 0 0 0 0 0 0 0 0 0 0 0 0 0 0 0 0 0 0 0 0 0 0 0 0 0 0 0 0 0
2 2 2 2 2 2 2 2 1 1 1 1 1 1 0 0 0 0 0 0 0 0 0 0 0 0 0 0 0 0 0 0 0 0 0 0 0 0 0 0 0 0 0
2 2 2 2 2 2 2 1 1 1 1 1 1 1 0 0 0 0 0 0 0 0 0 0 0 0 0 0 0 0 0 0 0 0 0 0 0 0 0 0 0 0 0
2 2 2 2 2 2 2 2 2 1 1 1 1 1 0 0 0 0 0 0 0 0 0 0 0 0 0 0 0 0 0 0 0 0 0 0 0 0 0 0 0 0 0
2 2 2 2 2 2 2 2 2 1 1 1 1 1 1 0 0 0 0 0 0 0 0 0 0 0 0 0 0 0 0 0 0 0 0 0 0 0 0 0 0 0 0
2 2 2 2 2 2 2 2 2 1 1 1 1 1 1 0 0 0 0 0 0 0 0 0 0 0 0 0 0 0 0 0 0 0 0 0 0 0 0 0 0 0 0
2 2 2 2 2 2 2 2 2 1 1 1 1 1 1 1 0 0 0 0 0 0 0 0 0 0 0 0 0 0 0 0 0 0 0 0 0 0 0 0 0 0 0
1 1 2 2 2 1 2 2 2 1 1 1 1 1 1 1 1 1 0 0 0 0 0 0 0 0 0 0 0 0 0 0 0 0 0 0 0 0 0 0 0 0 0
1 1 1 1 1 1 1 2 2 1 1 1 1 1 1 1 1 1 1 1 0 0 0 0 0 0 0 0 0 0 0 0 0 0 0 0 0 0 0 0 0 0 0
1 1 1 1 1 1 1 1 1 1 1 1 1 1 1 1 1 1 1 1 0 0 0 0 0 0 0 0 0 0 0 0 0 0 0 0 0 0 0 0 0 0 0
1 1 1 1 1 1 1 1 1 1 1 1 1 1 1 1 1 1 0 0 0 0 0 0 0 0 0 0 0 0 0 0 0 0 0 0 0 0 0 0 0 0 0
1 1 1 1 1 1 1 1 1 1 1 1 1 1 1 1 0 0 0 0 0 0 0 0 0 0 0 0 0 0 0 0 0 0 0 0 0 0 0 0 0 0 0
1 1 1 2 1 1 1 1 1 1 1 1 1 1 1 0 0 0 0 0 0 0 0 0 0 0 0 0 0 0 0 0 0 0 0 0 0 0 0 0 0 0 0
1 2 2 2 2 2 1 1 1 1 1 1 1 1 0 0 0 0 0 0 0 0 0 0 0 0 0 0 0 0 0 0 0 0 0 0 0 0 0 0 0 0 0
2 2 2 2 2 2 2 1 1 1 1 1 1 1 0 0 0 0 0 0 0 0 0 0 0 0 0 0 0 0 0 0 0 0 0 0 0 0 0 0 0 0 0
2 2 2 2 2 2 2 2 1 1 1 1 1 1 0 0 0 0 0 0 0 0 0 0 0 0 0 0 0 0 0 0 0 0 0 0 0 0 0 0 0 0 0
2 2 2 3 3 2 2 2 1 1 1 1 1 1 0 0 0 0 0 0 0 0 0 0 0 0 0 0 0 0 0 0 0 0 0 0 0 0 0 0 0 0 0
2 3 3 3 3 2 2 2 1 1 1 1 1 1 0 0 0 0 0 0 0 0 0 0 0 0 0 0 0 0 0 0 0 0 0 0 0 0 0 0 0 0 0
3 3 3 3 3 3 2 2 1 1 1 1 1 1 1 0 0 0 0 0 0 0 0 0 0 0 0 0 0 0 0 0 0 0 0 0 0 0 0 0 0 0 0
4 4 4 4 3 3 2 2 1 1 1 1 1 1 1 1 0 0 0 0 0 0 0 0 0 0 0 0 0 0 0 0 0 0 0 0 0 0 0 0 0 0 0
4 4 4 4 4 3 2 2 2 1 1 1 1 1 1 1 0 0 0 0 0 0 0 0 0 0 0 0 0 0 0 0 0 0 0 0 0 0 0 0 0 0 0
4 4 4 4 4 3 2 2 2 1 1 1 1 1 1 1 0 0 0 0 0 0 0 0 0 0 0 0 0 0 0 0 0 0 0 0 0 0 0 0 0 0 0
4 4 4 4 3 3 2 2 2 1 1 1 1 1 1 1 0 0 0 0 0 0 0 0 0 0 0 0 0 0 0 0 0 0 0 0 0 0 0 0 0 0 0
3 4 4 3 3 3 2 2 2 1 1 1 1 1 1 1 1 0 0 0 0 0 0 0 0 0 0 0 0 0 0 0 0 0 0 0 0 -0 -0 -0 -0 0 0
3 3 3 3 2 2 2 2 1 1 1 1 1 1 1 1 1 0 0 0 0 0 0 0 0 0 0 0 0 0 0 0 0 0 0 -0 -0 -0 -0 -0 -0 0 0
3 3 3 2 2 2 1 1 1 1 1 1 1 1 1 1 1 0 0 0 0 0 0 0 0 0 0 0 0 0 0 0 0 0 0 -0 -0 -0 -0 -0 -0 0 0
Wind_Speed
12 12 12 12 11 10 9 9 8 8 6 5 5 4 3 3 3 3 5 5 4 3 2 2 2 2 2 2 2 2 2 2 2 1 1 2 2 3 3 2 2 4 5
12 12 11 11 11 11 10 9 8 8 7 5 4 3 3 3 4 3 4 5 4 4 5 4 3 3 2 2 2 2 1 2 2 1 1 1 1 2 3 2 3 3 2
14 13 12 11 11 11 11 9 9 9 9 7 5 4 2 2 2 3 3 4 4 4 3 4 3 2 3 3 3 3 4 3 2 2 2 2 2 2 2 4 3 3 2
13 13 12 11 11 10 10 8 8 8 8 7 6 6 5 4 4 3 4 4 5 5 4 4 4 3 3 3 4 4 3 4 3 2 3 2 2 1 1 1 1 2 2
12 13 12 11 10 10 9 8 8 7 7 7 6 6 5 4 3 3 4 4 4 4 5 4 4 4 3 3 4 3 3 3 3 3 2 3 2 3 2 1 1 0 1
12 12 11 10 8 9 8 9 8 7 7 7 6 6 6 4 4 4 3 3 3 3 5 4 4 4 4 4 4 3 4 3 3 3 2 1 2 2 2 3 2 2 1
11 11 11 10 9 9 8 9 9 8 7 7 6 6 5 5 5 4 4 4 3 3 4 4 3 3 3 3 3 3 4 4 4 3 3 2 2 1 1 2 2 1 1
11 12 11 10 9 9 8 8 9 7 7 7 6 5 4 3 3 3 3 3 3 3 3 3 3 4 4 4 3 3 4 3 4 5 3 2 2 1 1 1 2 1 1
11 12 12 11 10 9 8 8 8 7 7 7 6 5 4 3 3 2 3 2 2 2 3 3 3 3 3 3 3 3 2 2 3 3 3 3 2 2 1 1 2 2 2
11 12 11 11 10 9 8 8 8 6 6 6 5 5 5 4 3 2 2 1 1 1 1 2 2 2 2 2 2 2 2 2 2 2 2 2 2 1 1 1 1 1 2
10 10 10 10 10 10 9 8 7 6 5 5 4 3 4 3 3 2 2 2 2 2 1 1 1 2 2 2 2 2 2 2 2 1 2 2 1 1 1 1 1 1 2
11 11 11 10 9 10 10 9 8 7 5 5 5 4 3 3 3 2 2 1 1 1 1 1 1 1 1 2 2 2 1 1 2 2 2 1 1 1 1 1 1 1 2
11 11 11 10 9 9 8 8 7 7 6 6 5 4 4 4 3 3 2 2 1 1 1 0 1 0 0 0 1 1 1 1 0 0 1 1 1 1 1 1 1 1 2
10 10 9 8 8 8 7 6 6 7 7 6 6 5 4 4 4 3 2 2 1 1 1 1 0 0 0 1 1 1 1 1 1 1 1 2 1 0 1 1 1 2 3
10 10 10 9 8 8 7 6 6 7 6 6 6 6 5 5 4 4 3 2 2 2 2 2 2 2 2 2 1 1 1 2 2 3 3 4 5 5 3 2 2 2 2
11 11 11 11 9 9 8 7 6 6 6 5 5 6 5 5 4 4 3 3 2 2 3 3 3 4 3 4 4 3 2 2 3 3 3 4 5 7 8 9 8 5 3
11 11 11 10 9 9 8 8 7 7 6 6 5 5 5 5 4 4 4 3 3 3 3 3 4 4 5 7 7 6 3 4 4 3 3 3 4 5 5 8 9 9 9
11 11 11 11 10 9 9 7 8 7 6 6 5 5 4 5 5 4 4 3 3 3 3 3 4 4 5 7 7 6 5 5 5 5 5 5 5 5 5 6 7 7 7
8 9 10 11 10 9 8 8 8 7 6 6 5 5 4 4 5 4 4 3 3 3 3 3 4 4 5 6 5 4 4 5 6 6 6 6 6 6 6 7 7 7 6
8 8 9 10 9 8 8 8 7 7 6 6 5 5 4 4 4 4 4 3 3 3 3 4 4 5 5 5 5 3 3 5 5 5 6 9 7 6 6 6 6 7 5
8 9 9 9 8 8 7 6 6 6 5 5 5 5 4 4 5 5 4 4 4 4 4 5 5 5 5 5 6 5 2 4 4 4 4 4 6 7 7 6 5 6 5
8 9 8 8 7 7 7 6 5 5 5 5 5 5 4 4 4 5 4 4 4 4 4 4 4 4 5 5 6 7 6 5 5 5 4 4 6 7 7 5 5 5 3
7 8 9 8 7 6 6 6 5 5 5 5 5 5 5 4 4 4 4 3 3 3 3 3 4 4 4 5 8 9 10 9 6 5 8 7 7 6 5 5 4 2 1
7 7 8 8 6 5 5 5 5 5 5 5 5 5 5 5 4 3 2 2 1 1 2 3 3 4 4 4 4 5 6 8 7 6 7 6 4 3 4 3 1 0 2
6 6 6 7 7 6 5 5 5 5 5 5 5 5 5 5 5 5 5 4 4 2 1 2 3 4 4 3 4 4 4 4 5 5 4 3 3 2 2 2 2 2 2
5 6 6 6 6 6 5 4 4 4 5 5 4 4 4 5 5 6 6 11 8 9 9 7 5 5 7 9 9 7 8 8 7 4 4 3 3 3 3 2 2 2 2
Wind_Direction
163 155 157 158 159 160 165 169 180 170 168 169 175 188 187 190 200 191 176 178 189 197 204 225 178 203 176 178 189 185 200 228 233 231 227 225 216 212 192 200 188 191 188
159 157 160 163 165 166 169 174 181 176 178 178 182 187 183 194 201 195 167 179 186 192 204 209 202 200 182 200 215 200 218 240 228 217 236 269 283 257 215 182 199 196 182
164 163 165 169 171 173 176 180 181 177 182 178 179 186 176 206 204 185 179 193 194 203 208 191 206 204 203 201 212 216 213 231 242 217 188 185 223 248 238 207 188 163 160
160 163 167 171 176 175 175 173 175 174 176 180 190 191 190 199 208 193 183 193 202 202 206 202 203 218 225 200 217 217 218 225 238 237 220 218 184 191 257 280 182 171 155
160 161 163 166 169 169 167 170 170 172 173 185 194 200 202 198 199 191 182 192 198 204 210 208 200 210 223 219 226 224 224 225 234 241 222 227 219 216 196 225 216 120 129
151 151 153 154 160 162 162 165 167 170 174 184 196 202 206 200 192 194 190 198 199 208 213 214 205 207 213 221 223 218 220 226 244 259 257 230 219 223 215 214 193 172 173
144 147 150 154 158 161 164 164 164 171 178 185 196 202 210 207 202 203 199 201 202 204 203 211 202 211 213 217 218 216 223 216 225 240 253 255 256 244 238 217 204 182 158
148 151 153 154 160 165 162 159 163 170 178 184 190 194 202 206 206 205 205 205 208 208 187 202 203 210 217 220 210 221 220 213 223 237 242 252 259 267 238 203 186 186 186
150 151 151 154 159 161 159 160 158 168 178 182 180 185 192 198 200 191 200 216 216 197 182 196 207 206 208 218 208 212 222 208 213 230 234 243 251 253 263 231 191 186 204
152 151 153 155 155 155 152 152 154 165 171 174 180 177 180 185 182 191 192 178 210 226 190 203 205 204 199 210 206 205 200 203 213 214 228 255 267 267 256 237 229 196 185
147 147 147 147 149 146 147 149 149 155 160 164 163 160 158 161 156 161 179 177 190 213 205 197 196 199 200 208 201 204 196 207 218 227 227 231 250 264 281 259 222 180 156
149 148 146 146 148 147 148 150 154 155 153 147 146 148 146 143 145 156 165 170 183 193 198 196 189 212 207 203 198 212 211 210 217 223 227 236 213 191 246 251 232 172 164
146 147 149 151 152 145 144 149 154 152 151 147 143 139 143 141 140 136 135 139 146 163 163 141 173 221 280 241 195 180 198 196 207 183 200 216 173 206 245 215 179 151 145
148 151 147 143 142 139 140 147 149 143 145 143 142 139 142 138 134 129 125 125 124 126 115 106 93 82 66 51 92 134 162 138 87 67 61 55 56 36 220 171 135 128 130
159 154 150 147 145 141 145 150 144 139 139 143 145 142 139 135 132 128 125 121 116 108 86 68 57 49 64 45 48 97 116 107 95 81 79 81 82 71 69 80 86 120 139
167 161 157 155 155 153 158 152 147 142 140 145 142 136 136 132 130 133 131 119 103 82 74 59 58 55 49 48 59 77 87 96 100 99 93 93 86 83 78 76 71 74 107
171 166 161 159 158 160 158 153 147 145 146 144 139 139 142 142 138 140 128 118 105 93 84 75 80 77 59 59 65 66 81 82 85 89 86 83 84 85 89 82 73 62 61
170 165 161 158 158 160 157 151 148 147 147 144 145 148 150 141 132 127 121 117 110 103 94 90 90 88 72 62 61 63 84 79 73 68 70 79 71 64 84 89 80 68 56
152 150 154 153 153 152 148 151 152 152 154 151 149 147 142 135 132 126 116 111 111 107 102 94 93 93 80 60 61 65 98 91 81 73 67 77 78 63 86 100 98 91 78
131 136 140 140 143 143 147 153 155 155 152 144 140 137 134 132 129 123 116 114 113 112 104 94 86 89 87 65 58 55 109 104 97 87 76 69 75 72 83 106 108 104 99
122 129 132 136 137 138 142 147 145 143 137 131 130 131 128 125 127 121 117 121 120 117 110 104 96 91 89 77 52 42 92 114 112 104 92 77 75 79 83 95 103 119 122
124 127 127 126 127 135 142 141 137 132 129 127 128 125 125 129 128 125 126 128 130 131 128 124 116 103 91 75 67 63 68 97 107 106 103 100 93 90 90 94 105 116 118
122 126 126 121 122 129 137 140 131 129 131 131 129 123 117 106 115 130 136 140 153 157 148 148 138 125 114 96 84 77 75 81 90 95 106 114 112 105 99 99 96 95 112
120 123 128 127 120 116 116 117 122 127 132 132 128 127 126 121 109 103 118 129 131 143 143 140 134 129 128 127 120 108 100 98 102 108 108 107 98 100 108 112 108 74 72
120 120 121 123 127 125 120 118 126 135 137 135 135 139 137 131 110 85 48 54 54 45 86 113 122 139 139 129 132 140 133 129 123 130 133 130 129 139 146 134 121 114 107
113 117 120 123 127 125 120 118 125 138 143 144 149 150 143 134 133 123 90 53 60 59 60 69 89 93 112 121 112 106 109 116 133 134 143 151 157 153 145 139 133 123 118